QPF
0.00 0.00 0.00 0.00 0.00 0.00 0.00 0.00 0.00 0.00 0.00 0.00 0.00 0.00 0.00 0.00 0.00 0.00 0.00 0.00 0.01 0.01 0.02 0.02 0.02 0.02 0.02 0.02 0.01 0.01 0.01 0.01 0.01 0.01 0.01 0.02 0.02 0.01 0.01 0.01 0.01 0.01 0.01
0.01 0.01 0.01 0.01 0.00 0.00 0.00 0.00 0.00 0.00 0.01 0.00 0.00 0.00 0.00 0.00 0.00 0.00 0.00 0.00 0.00 0.01 0.01 0.02 0.01 0.01 0.02 0.01 0.01 0.01 0.01 0.01 0.01 0.01 0.01 0.02 0.02 0.02 0.01 0.01 0.01 0.01 0.01
0.01 0.01 0.01 0.01 0.00 0.00 0.00 0.00 0.00 0.00 0.00 0.00 0.00 0.00 0.00 0.00 0.00 0.00 0.00 0.00 0.00 0.01 0.01 0.01 0.01 0.01 0.01 0.01 0.01 0.01 0.02 0.02 0.02 0.02 0.02 0.03 0.03 0.03 0.03 0.02 0.02 0.02 0.02
0.01 0.01 0.01 0.01 0.01 0.01 0.00 0.00 0.00 0.00 0.00 0.00 0.00 0.01 0.01 0.01 0.01 0.01 0.01 0.01 0.01 0.01 0.01 0.01 0.01 0.01 0.01 0.01 0.01 0.01 0.02 0.02 0.02 0.02 0.02 0.02 0.02 0.03 0.03 0.03 0.03 0.03 0.03
0.01 0.01 0.01 0.01 0.02 0.01 0.01 0.01 0.00 0.00 0.00 0.00 0.00 0.00 0.00 0.00 0.01 0.01 0.01 0.01 0.01 0.01 0.01 0.01 0.01 0.01 0.01 0.01 0.01 0.01 0.01 0.01 0.01 0.01 0.01 0.01 0.01 0.01 0.02 0.02 0.02 0.02 0.02
0.02 0.02 0.02 0.02 0.02 0.02 0.02 0.02 0.02 0.01 0.00 0.00 0.00 0.00 0.00 0.00 0.01 0.01 0.01 0.01 0.01 0.01 0.01 0.00 0.00 0.01 0.01 0.01 0.01 0.01 0.01 0.01 0.00 0.00 0.01 0.01 0.01 0.01 0.01 0.01 0.01 0.01 0.01
0.01 0.02 0.02 0.01 0.01 0.02 0.02 0.02 0.03 0.02 0.01 0.00 0.00 0.00 0.00 0.00 0.01 0.01 0.01 0.01 0.01 0.01 0.01 0.00 0.00 0.00 0.01 0.01 0.01 0.01 0.01 0.01 0.01 0.01 0.00 0.00 0.00 0.01 0.01 0.01 0.01 0.01 0.01
0.00 0.01 0.01 0.01 0.01 0.01 0.02 0.02 0.02 0.02 0.01 0.01 0.01 0.00 0.00 0.01 0.01 0.02 0.02 0.01 0.01 0.00 0.00 0.00 0.01 0.01 0.01 0.01 0.01 0.01 0.01 0.01 0.01 0.01 0.01 0.00 0.00 0.01 0.01 0.01 0.01 0.01 0.01
0.01 0.00 0.01 0.01 0.01 0.01 0.01 0.02 0.02 0.01 0.01 0.01 0.02 0.02 0.01 0.01 0.02 0.02 0.01 0.01 0.00 0.00 0.01 0.01 0.00 0.01 0.01 0.01 0.01 0.01 0.01 0.00 0.00 0.01 0.01 0.01 0.00 0.00 0.01 0.01 0.01 0.01 0.01
0.01 0.01 0.01 0.01 0.01 0.01 0.01 0.01 0.01 0.01 0.01 0.01 0.01 0.02 0.02 0.02 0.01 0.01 0.01 0.01 0.01 0.01 0.00 0.00 0.00 0.01 0.02 0.02 0.02 0.01 0.01 0.01 0.00 0.01 0.01 0.01 0.01 0.00 0.01 0.01 0.01 0.01 0.01
0.01 0.01 0.01 0.00 0.00 0.01 0.01 0.01 0.01 0.01 0.01 0.01 0.01 0.01 0.02 0.02 0.01 0.01 0.02 0.01 0.01 0.01 0.01 0.01 0.01 0.01 0.02 0.02 0.03 0.03 0.02 0.01 0.01 0.01 0.01 0.00 0.00 0.00 0.00 0.00 0.01 0.01 0.02
0.01 0.01 0.01 0.00 0.00 0.01 0.01 0.01 0.01 0.01 0.01 0.01 0.01 0.01 0.01 0.01 0.01 0.02 0.02 0.02 0.01 0.01 0.01 0.02 0.02 0.02 0.02 0.02 0.02 0.03 0.03 0.02 0.01 0.01 0.01 0.01 0.01 0.01 0.01 0.01 0.01 0.01 0.01
0.01 0.01 0.01 0.01 0.01 0.01 0.01 0.01 0.01 0.01 0.01 0.01 0.01 0.01 0.01 0.01 0.01 0.02 0.01 0.01 0.02 0.02 0.01 0.02 0.02 0.02 0.02 0.02 0.02 0.03 0.02 0.02 0.01 0.00 0.00 0.00 0.00 0.01 0.01 0.01 0.01 0.01 0.02
0.00 0.00 0.00 0.01 0.01 0.01 0.01 0.01 0.01 0.01 0.02 0.02 0.01 0.01 0.01 0.01 0.01 0.01 0.01 0.01 0.01 0.02 0.02 0.02 0.02 0.01 0.01 0.02 0.02 0.03 0.02 0.02 0.01 0.00 0.00 0.00 0.00 0.01 0.01 0.01 0.01 0.01 0.02
0.00 0.00 0.00 0.00 0.01 0.01 0.01 0.02 0.02 0.02 0.02 0.02 0.01 0.01 0.01 0.01 0.01 0.01 0.01 0.01 0.01 0.02 0.02 0.02 0.02 0.02 0.01 0.01 0.01 0.02 0.02 0.02 0.02 0.01 0.01 0.01 0.01 0.01 0.01 0.01 0.01 0.02 0.02
0.00 0.00 0.01 0.01 0.01 0.01 0.01 0.01 0.02 0.02 0.02 0.02 0.02 0.02 0.01 0.01 0.01 0.01 0.01 0.01 0.02 0.03 0.03 0.02 0.02 0.02 0.02 0.01 0.01 0.01 0.01 0.01 0.01 0.01 0.01 0.01 0.01 0.01 0.01 0.01 0.01 0.02 0.02
0.00 0.00 0.00 0.01 0.01 0.01 0.01 0.02 0.02 0.01 0.01 0.02 0.02 0.02 0.02 0.02 0.02 0.01 0.01 0.01 0.02 0.02 0.02 0.02 0.02 0.02 0.02 0.01 0.01 0.01 0.01 0.01 0.01 0.01 0.01 0.01 0.02 0.01 0.01 0.01 0.01 0.01 0.02
0.01 0.01 0.01 0.01 0.01 0.01 0.01 0.02 0.02 0.02 0.02 0.02 0.02 0.02 0.02 0.02 0.02 0.02 0.02 0.01 0.01 0.02 0.02 0.02 0.02 0.02 0.02 0.02 0.02 0.02 0.01 0.01 0.01 0.02 0.03 0.03 0.03 0.02 0.01 0.01 0.01 0.01 0.02
0.01 0.01 0.01 0.01 0.01 0.01 0.01 0.01 0.01 0.01 0.01 0.01 0.01 0.01 0.02 0.02 0.02 0.02 0.01 0.01 0.01 0.01 0.02 0.02 0.03 0.03 0.04 0.04 0.03 0.03 0.02 0.02 0.02 0.02 0.02 0.02 0.02 0.02 0.01 0.01 0.01 0.01 0.01
0.01 0.01 0.01 0.01 0.01 0.01 0.01 0.02 0.02 0.01 0.01 0.01 0.01 0.01 0.02 0.01 0.01 0.01 0.01 0.01 0.01 0.02 0.02 0.03 0.04 0.04 0.04 0.05 0.05 0.03 0.02 0.02 0.02 0.01 0.01 0.01 0.01 0.01 0.01 0.01 0.01 0.01 0.01
0.01 0.01 0.01 0.01 0.01 0.01 0.01 0.02 0.02 0.02 0.02 0.02 0.02 0.02 0.02 0.02 0.02 0.01 0.01 0.01 0.01 0.02 0.02 0.03 0.04 0.06 0.05 0.05 0.05 0.03 0.02 0.02 0.02 0.02 0.02 0.02 0.01 0.01 0.01 0.01 0.01 0.01 0.02
0.01 0.01 0.01 0.01 0.01 0.01 0.01 0.01 0.02 0.02 0.02 0.02 0.02 0.02 0.03 0.02 0.02 0.02 0.02 0.02 0.02 0.02 0.03 0.03 0.03 0.04 0.05 0.04 0.03 0.03 0.02 0.02 0.02 0.02 0.02 0.02 0.02 0.01 0.01 0.01 0.01 0.01 0.01
0.01 0.01 0.01 0.01 0.01 0.01 0.01 0.01 0.01 0.02 0.02 0.02 0.03 0.03 0.03 0.03 0.02 0.02 0.02 0.02 0.02 0.02 0.02 0.04 0.03 0.03 0.04 0.03 0.02 0.01 0.02 0.02 0.02 0.02 0.02 0.02 0.02 0.02 0.02 0.02 0.01 0.01 0.02
0.01 0.01 0.01 0.01 0.01 0.01 0.01 0.01 0.01 0.02 0.02 0.02 0.02 0.02 0.03 0.02 0.02 0.02 0.03 0.03 0.03 0.03 0.03 0.06 0.05 0.03 0.04 0.03 0.01 0.01 0.01 0.02 0.03 0.04 0.03 0.02 0.02 0.02 0.02 0.02 0.02 0.02 0.02
0.01 0.01 0.01 0.01 0.01 0.01 0.01 0.01 0.01 0.01 0.02 0.02 0.02 0.02 0.04 0.03 0.03 0.03 0.03 0.03 0.03 0.03 0.04 0.06 0.06 0.04 0.04 0.03 0.02 0.02 0.02 0.02 0.02 0.02 0.03 0.03 0.02 0.02 0.02 0.02 0.03 0.03 0.03
0.01 0.01 0.01 0.01 0.01 0.01 0.01 0.01 0.01 0.01 0.02 0.02 0.02 0.02 0.03 0.03 0.04 0.05 0.05 0.05 0.05 0.05 0.06 0.06 0.05 0.05 0.05 0.04 0.03 0.04 0.03 0.02 0.01 0.01 0.02 0.02 0.02 0.02 0.02 0.03 0.03 0.03 0.03
MSLP
1015.50 1015.58 1015.70 1015.81 1015.88 1015.90 1015.86 1015.78 1015.71 1015.66 1015.68 1015.77 1015.93 1016.15 1016.39 1016.61 1016.80 1016.93 1016.99 1017.00 1016.98 1016.96 1016.96 1017.01 1017.13 1017.31 1017.56 1017.86 1018.20 1018.56 1018.94 1019.32 1019.70 1020.08 1020.45 1020.79 1021.09 1021.34 1021.52 1021.63 1021.66 1021.62 1021.54
1015.43 1015.47 1015.55 1015.63 1015.67 1015.66 1015.60 1015.51 1015.42 1015.35 1015.33 1015.39 1015.51 1015.69 1015.90 1016.11 1016.28 1016.41 1016.48 1016.50 1016.48 1016.47 1016.48 1016.53 1016.65 1016.84 1017.09 1017.41 1017.78 1018.17 1018.59 1019.02 1019.45 1019.88 1020.28 1020.66 1020.99 1021.27 1021.48 1021.63 1021.70 1021.70 1021.65
1015.43 1015.44 1015.47 1015.50 1015.50 1015.45 1015.36 1015.24 1015.12 1015.03 1014.99 1015.01 1015.10 1015.24 1015.41 1015.59 1015.75 1015.86 1015.94 1015.96 1015.96 1015.96 1015.98 1016.04 1016.17 1016.36 1016.62 1016.95 1017.34 1017.76 1018.22 1018.68 1019.14 1019.59 1020.03 1020.43 1020.78 1021.08 1021.33 1021.50 1021.61 1021.66 1021.64
1015.51 1015.46 1015.44 1015.41 1015.35 1015.26 1015.13 1014.98 1014.84 1014.72 1014.64 1014.63 1014.68 1014.78 1014.92 1015.06 1015.19 1015.30 1015.37 1015.40 1015.41 1015.42 1015.45 1015.53 1015.66 1015.86 1016.13 1016.46 1016.86 1017.29 1017.75 1018.23 1018.71 1019.18 1019.62 1020.03 1020.40 1020.72 1020.98 1021.19 1021.33 1021.42 1021.45
1015.63 1015.53 1015.45 1015.35 1015.24 1015.09 1014.92 1014.73 1014.56 1014.41 1014.31 1014.26 1014.27 1014.32 1014.41 1014.52 1014.62 1014.70 1014.76 1014.79 1014.81 1014.84 1014.88 1014.97 1015.11 1015.31 1015.58 1015.91 1016.29 1016.72 1017.18 1017.65 1018.13 1018.59 1019.03 1019.44 1019.81 1020.14 1020.42 1020.65 1020.83 1020.95 1021.03
1015.76 1015.61 1015.47 1015.31 1015.13 1014.93 1014.72 1014.50 1014.29 1014.11 1013.97 1013.88 1013.84 1013.85 1013.88 1013.93 1013.99 1014.04 1014.08 1014.11 1014.14 1014.18 1014.24 1014.34 1014.49 1014.69 1014.95 1015.27 1015.64 1016.05 1016.48 1016.93 1017.38 1017.82 1018.24 1018.64 1019.00 1019.33 1019.63 1019.88 1020.10 1020.27 1020.39
1015.88 1015.68 1015.48 1015.26 1015.03 1014.78 1014.52 1014.27 1014.03 1013.82 1013.64 1013.50 1013.41 1013.35 1013.32 1013.31 1013.31 1013.32 1013.34 1013.36 1013.40 1013.45 1013.53 1013.65 1013.81 1014.01 1014.26 1014.56 1014.89 1015.26 1015.66 1016.06 1016.48 1016.89 1017.28 1017.67 1018.02 1018.35 1018.66 1018.94 1019.19 1019.40 1019.58
1015.96 1015.72 1015.47 1015.20 1014.91 1014.63 1014.34 1014.06 1013.79 1013.54 1013.32 1013.13 1012.96 1012.83 1012.72 1012.63 1012.57 1012.54 1012.52 1012.54 1012.58 1012.65 1012.75 1012.89 1013.06 1013.26 1013.50 1013.77 1014.07 1014.40 1014.74 1015.11 1015.48 1015.85 1016.22 1016.59 1016.94 1017.28 1017.60 1017.90 1018.18 1018.43 1018.65
1015.98 1015.71 1015.41 1015.10 1014.79 1014.47 1014.15 1013.85 1013.56 1013.28 1013.01 1012.76 1012.52 1012.30 1012.10 1011.93 1011.80 1011.71 1011.67 1011.67 1011.72 1011.80 1011.93 1012.09 1012.27 1012.47 1012.70 1012.94 1013.21 1013.49 1013.79 1014.10 1014.44 1014.78 1015.14 1015.49 1015.85 1016.19 1016.53 1016.86 1017.16 1017.45 1017.70
1015.95 1015.63 1015.30 1014.96 1014.62 1014.29 1013.96 1013.64 1013.33 1013.01 1012.70 1012.38 1012.07 1011.76 1011.48 1011.23 1011.03 1010.88 1010.80 1010.79 1010.84 1010.95 1011.09 1011.27 1011.46 1011.67 1011.88 1012.10 1012.32 1012.56 1012.82 1013.10 1013.40 1013.73 1014.08 1014.44 1014.81 1015.17 1015.53 1015.88 1016.21 1016.51 1016.79
1015.84 1015.49 1015.13 1014.77 1014.41 1014.06 1013.73 1013.40 1013.07 1012.72 1012.36 1011.99 1011.60 1011.22 1010.86 1010.53 1010.26 1010.07 1009.95 1009.93 1009.98 1010.10 1010.26 1010.45 1010.65 1010.85 1011.05 1011.24 1011.43 1011.64 1011.86 1012.12 1012.41 1012.73 1013.09 1013.47 1013.86 1014.25 1014.63 1015.00 1015.34 1015.66 1015.95
1015.67 1015.28 1014.89 1014.50 1014.12 1013.77 1013.43 1013.09 1012.74 1012.37 1011.98 1011.56 1011.11 1010.66 1010.23 1009.84 1009.52 1009.28 1009.15 1009.11 1009.16 1009.28 1009.45 1009.64 1009.84 1010.03 1010.20 1010.37 1010.53 1010.71 1010.91 1011.15 1011.44 1011.77 1012.15 1012.56 1012.98 1013.40 1013.82 1014.20 1014.56 1014.88 1015.17
1015.43 1014.99 1014.56 1014.14 1013.74 1013.37 1013.02 1012.68 1012.32 1011.93 1011.51 1011.05 1010.56 1010.06 1009.59 1009.15 1008.79 1008.53 1008.38 1008.33 1008.37 1008.49 1008.65 1008.84 1009.02 1009.19 1009.34 1009.47 1009.60 1009.75 1009.94 1010.17 1010.47 1010.82 1011.23 1011.67 1012.13 1012.59 1013.03 1013.44 1013.80 1014.12 1014.39
1015.12 1014.63 1014.14 1013.69 1013.26 1012.87 1012.51 1012.15 1011.77 1011.37 1010.93 1010.45 1009.93 1009.41 1008.91 1008.46 1008.08 1007.81 1007.64 1007.58 1007.62 1007.72 1007.87 1008.03 1008.18 1008.31 1008.42 1008.52 1008.62 1008.74 1008.91 1009.15 1009.46 1009.83 1010.27 1010.75 1011.25 1011.74 1012.21 1012.63 1012.99 1013.30 1013.55
1014.74 1014.18 1013.64 1013.14 1012.68 1012.27 1011.87 1011.49 1011.11 1010.69 1010.23 1009.74 1009.22 1008.70 1008.19 1007.74 1007.37 1007.10 1006.93 1006.86 1006.88 1006.96 1007.07 1007.19 1007.29 1007.38 1007.44 1007.49 1007.56 1007.66 1007.82 1008.05 1008.37 1008.77 1009.23 1009.74 1010.27 1010.79 1011.27 1011.70 1012.07 1012.37 1012.61
1014.29 1013.67 1013.08 1012.53 1012.03 1011.57 1011.15 1010.74 1010.34 1009.91 1009.45 1008.96 1008.45 1007.94 1007.45 1007.02 1006.66 1006.39 1006.23 1006.15 1006.14 1006.19 1006.25 1006.32 1006.37 1006.39 1006.40 1006.40 1006.43 1006.50 1006.64 1006.87 1007.19 1007.60 1008.08 1008.61 1009.16 1009.69 1010.19 1010.62 1010.98 1011.28 1011.51
1013.78 1013.11 1012.47 1011.87 1011.32 1010.83 1010.37 1009.94 1009.51 1009.07 1008.61 1008.13 1007.64 1007.16 1006.70 1006.30 1005.96 1005.71 1005.54 1005.44 1005.40 1005.40 1005.41 1005.41 1005.39 1005.35 1005.30 1005.25 1005.23 1005.27 1005.39 1005.61 1005.93 1006.34 1006.83 1007.36 1007.92 1008.46 1008.95 1009.38 1009.75 1010.04 1010.28
1013.23 1012.51 1011.83 1011.19 1010.61 1010.08 1009.59 1009.12 1008.67 1008.23 1007.77 1007.30 1006.84 1006.39 1005.97 1005.59 1005.28 1005.03 1004.85 1004.73 1004.66 1004.60 1004.54 1004.47 1004.38 1004.27 1004.15 1004.05 1003.99 1004.00 1004.10 1004.31 1004.61 1005.02 1005.50 1006.03 1006.58 1007.11 1007.60 1008.03 1008.39 1008.70 1008.95
1012.64 1011.90 1011.19 1010.52 1009.91 1009.35 1008.82 1008.33 1007.87 1007.41 1006.95 1006.50 1006.06 1005.64 1005.25 1004.90 1004.60 1004.36 1004.16 1004.01 1003.88 1003.75 1003.62 1003.48 1003.31 1003.14 1002.97 1002.82 1002.73 1002.72 1002.80 1002.99 1003.28 1003.67 1004.14 1004.65 1005.18 1005.70 1006.18 1006.61 1006.98 1007.30 1007.58
1012.02 1011.27 1010.55 1009.86 1009.23 1008.64 1008.09 1007.58 1007.09 1006.63 1006.18 1005.74 1005.32 1004.92 1004.55 1004.22 1003.92 1003.66 1003.43 1003.23 1003.03 1002.84 1002.64 1002.42 1002.19 1001.96 1001.74 1001.57 1001.45 1001.42 1001.49 1001.67 1001.96 1002.33 1002.78 1003.28 1003.79 1004.29 1004.76 1005.19 1005.57 1005.91 1006.23
1011.38 1010.63 1009.91 1009.21 1008.56 1007.95 1007.39 1006.86 1006.36 1005.88 1005.43 1005.00 1004.59 1004.20 1003.83 1003.50 1003.18 1002.89 1002.62 1002.35 1002.09 1001.82 1001.54 1001.26 1000.97 1000.70 1000.45 1000.26 1000.15 1000.12 1000.19 1000.37 1000.65 1001.02 1001.46 1001.94 1002.43 1002.92 1003.38 1003.81 1004.21 1004.57 1004.92
1010.73 1009.99 1009.26 1008.57 1007.91 1007.28 1006.70 1006.15 1005.64 1005.16 1004.70 1004.26 1003.84 1003.45 1003.07 1002.70 1002.35 1002.01 1001.67 1001.34 1001.00 1000.65 1000.31 999.96 999.63 999.34 999.08 998.90 998.80 998.79 998.88 999.08 999.37 999.74 1000.17 1000.64 1001.12 1001.60 1002.06 1002.49 1002.90 1003.30 1003.68
1010.10 1009.37 1008.64 1007.94 1007.27 1006.64 1006.04 1005.47 1004.94 1004.44 1003.96 1003.51 1003.07 1002.64 1002.22 1001.81 1001.40 1000.99 1000.58 1000.16 999.74 999.32 998.91 998.53 998.17 997.87 997.63 997.47 997.40 997.43 997.56 997.79 998.11 998.49 998.92 999.39 999.86 1000.33 1000.79 1001.23 1001.66 1002.07 1002.49
1009.54 1008.81 1008.08 1007.38 1006.70 1006.05 1005.43 1004.84 1004.28 1003.75 1003.24 1002.75 1002.27 1001.80 1001.32 1000.84 1000.35 999.86 999.36 998.85 998.35 997.87 997.41 996.99 996.62 996.33 996.11 996.00 995.98 996.07 996.25 996.52 996.86 997.27 997.71 998.17 998.65 999.11 999.57 1000.02 1000.45 1000.88 1001.31
1009.10 1008.37 1007.64 1006.93 1006.24 1005.57 1004.93 1004.31 1003.72 1003.15 1002.60 1002.06 1001.52 1000.98 1000.42 999.86 999.28 998.69 998.10 997.50 996.92 996.38 995.87 995.43 995.07 994.80 994.62 994.56 994.60 994.75 994.98 995.30 995.67 996.10 996.55 997.01 997.48 997.94 998.39 998.83 999.26 999.70 1000.14
1008.84 1008.11 1007.39 1006.67 1005.97 1005.29 1004.62 1003.98 1003.35 1002.73 1002.12 1001.51 1000.90 1000.28 999.64 998.98 998.30 997.61 996.92 996.25 995.60 995.00 994.46 994.01 993.66 993.41 993.28 993.27 993.37 993.56 993.84 994.19 994.59 995.02 995.47 995.92 996.37 996.81 997.24 997.67 998.09 998.52 998.96
Thickness
5690 5688 5687 5685 5684 5682 5681 5679 5678 5677 5675 5674 5673 5671 5669 5668 5666 5665 5663 5662 5661 5660 5659 5658 5656 5655 5653 5651 5649 5647 5645 5643 5638 5636 5636 5636 5636 5635 5635 5635 5635 5635 5635
5689 5687 5685 5683 5681 5679 5678 5677 5676 5674 5673 5671 5669 5667 5666 5664 5663 5662 5660 5659 5658 5657 5656 5655 5654 5653 5651 5649 5647 5644 5642 5641 5638 5634 5632 5632 5631 5631 5631 5631 5631 5631 5631
5687 5685 5682 5680 5678 5677 5676 5675 5673 5671 5669 5668 5666 5664 5662 5661 5660 5659 5657 5656 5655 5654 5654 5652 5651 5650 5648 5646 5644 5642 5640 5638 5635 5632 5629 5628 5627 5627 5626 5626 5626 5626 5627
5684 5682 5679 5678 5677 5675 5674 5672 5670 5668 5666 5664 5662 5661 5660 5658 5657 5656 5654 5653 5652 5652 5651 5650 5649 5647 5646 5644 5642 5639 5637 5634 5631 5629 5626 5624 5623 5623 5622 5621 5620 5620 5620
5681 5678 5677 5676 5674 5673 5671 5669 5667 5665 5663 5661 5659 5658 5657 5655 5654 5653 5652 5650 5649 5648 5648 5647 5647 5646 5644 5643 5641 5637 5635 5631 5628 5625 5623 5621 5619 5618 5618 5617 5616 5614 5614
5677 5675 5674 5672 5671 5669 5667 5665 5663 5661 5659 5657 5655 5654 5653 5653 5652 5651 5649 5647 5645 5644 5644 5644 5643 5643 5642 5640 5639 5637 5634 5630 5626 5622 5619 5618 5617 5616 5615 5613 5611 5610 5610
5674 5672 5671 5669 5667 5666 5664 5661 5659 5657 5655 5653 5651 5650 5649 5648 5648 5647 5646 5643 5641 5640 5640 5639 5640 5639 5638 5636 5635 5633 5631 5629 5627 5623 5619 5617 5616 5616 5613 5610 5608 5606 5605
5669 5668 5667 5665 5663 5661 5659 5657 5655 5653 5651 5649 5648 5646 5645 5644 5644 5643 5641 5639 5637 5636 5635 5635 5634 5633 5633 5632 5630 5627 5626 5624 5622 5620 5619 5617 5616 5614 5612 5610 5606 5603 5601
5665 5664 5663 5661 5659 5656 5654 5652 5650 5648 5647 5645 5644 5642 5640 5640 5640 5639 5637 5634 5632 5631 5630 5630 5629 5628 5628 5627 5625 5622 5620 5618 5617 5616 5615 5614 5612 5611 5608 5605 5601 5598 5596
5662 5661 5660 5658 5655 5653 5651 5648 5646 5644 5643 5641 5639 5637 5636 5635 5635 5634 5632 5629 5627 5626 5625 5625 5625 5624 5623 5622 5619 5616 5613 5612 5611 5610 5608 5607 5606 5605 5603 5601 5599 5595 5592
5659 5657 5655 5653 5651 5649 5647 5644 5641 5639 5637 5635 5633 5632 5631 5631 5630 5629 5627 5624 5623 5621 5620 5619 5619 5619 5618 5617 5614 5612 5610 5608 5605 5603 5601 5599 5598 5597 5596 5594 5593 5591 5589
5653 5651 5650 5648 5646 5645 5640 5638 5635 5633 5630 5628 5626 5626 5625 5625 5625 5624 5623 5621 5619 5617 5615 5615 5614 5614 5613 5611 5609 5607 5604 5601 5597 5595 5592 5591 5589 5589 5588 5588 5587 5585 5585
5647 5645 5643 5642 5640 5638 5635 5631 5628 5626 5624 5622 5620 5620 5620 5620 5619 5619 5618 5616 5615 5612 5611 5610 5609 5608 5606 5604 5602 5600 5597 5593 5590 5587 5585 5584 5583 5582 5582 5581 5580 5579 5579
5641 5639 5637 5634 5633 5631 5629 5626 5623 5621 5618 5617 5616 5615 5615 5614 5614 5613 5612 5611 5609 5607 5604 5603 5602 5601 5599 5597 5595 5592 5590 5588 5585 5582 5580 5578 5577 5575 5574 5574 5572 5572 5571
5634 5633 5630 5629 5626 5624 5622 5621 5619 5619 5618 5616 5614 5613 5611 5610 5612 5611 5608 5606 5604 5601 5598 5595 5594 5592 5591 5589 5587 5585 5583 5580 5578 5576 5574 5572 5570 5569 5567 5566 5565 5564 5562
5627 5626 5624 5622 5620 5617 5615 5614 5613 5613 5613 5612 5611 5610 5610 5610 5608 5606 5604 5602 5599 5596 5592 5590 5588 5586 5585 5583 5581 5579 5576 5574 5572 5570 5568 5566 5564 5562 5560 5558 5556 5555 5555
5622 5620 5618 5616 5614 5611 5609 5608 5606 5606 5606 5606 5605 5605 5604 5604 5602 5600 5598 5596 5593 5590 5586 5585 5583 5581 5580 5578 5576 5574 5572 5569 5567 5564 5562 5560 5558 5556 5554 5552 5550 5549 5547
5616 5615 5613 5611 5609 5606 5604 5603 5602 5600 5598 5597 5598 5598 5598 5597 5595 5594 5592 5588 5585 5582 5581 5579 5578 5576 5574 5573 5571 5568 5566 5564 5561 5559 5557 5555 5553 5551 5549 5547 5545 5543 5541
5610 5608 5607 5605 5603 5601 5599 5597 5596 5595 5594 5592 5591 5591 5591 5589 5588 5586 5584 5582 5580 5577 5576 5574 5573 5571 5569 5567 5565 5563 5561 5558 5556 5554 5552 5550 5547 5545 5543 5541 5539 5538 5535
5604 5604 5602 5600 5597 5595 5593 5592 5590 5589 5588 5586 5586 5585 5584 5581 5580 5578 5577 5575 5574 5573 5571 5569 5568 5566 5564 5562 5559 5557 5555 5553 5551 5549 5546 5544 5542 5540 5538 5536 5534 5532 5530
5598 5597 5597 5594 5591 5590 5588 5586 5585 5584 5582 5582 5581 5581 5579 5577 5576 5574 5572 5570 5569 5568 5566 5565 5563 5561 5559 5556 5554 5551 5550 5548 5546 5544 5542 5539 5537 5535 5533 5530 5529 5527 5525
5590 5589 5588 5587 5585 5583 5582 5581 5579 5578 5578 5577 5575 5574 5573 5571 5570 5569 5567 5566 5565 5564 5562 5560 5559 5557 5555 5552 5549 5547 5546 5544 5542 5540 5537 5535 5533 5531 5528 5525 5523 5521 5519
5583 5581 5580 5579 5578 5577 5575 5574 5573 5573 5572 5571 5570 5569 5567 5566 5565 5564 5563 5562 5560 5559 5557 5555 5553 5551 5549 5547 5546 5544 5543 5542 5540 5537 5534 5531 5528 5525 5523 5520 5518 5515 5513
5575 5574 5573 5572 5570 5569 5568 5567 5567 5567 5567 5566 5565 5564 5563 5561 5560 5560 5559 5558 5556 5554 5552 5550 5549 5547 5546 5544 5542 5540 5540 5539 5536 5533 5530 5527 5524 5520 5517 5515 5512 5510 5508
5567 5566 5566 5565 5564 5562 5562 5561 5561 5561 5561 5560 5560 5559 5558 5556 5555 5554 5554 5552 5551 5550 5548 5546 5544 5543 5542 5540 5539 5537 5536 5535 5532 5529 5525 5522 5519 5516 5512 5510 5507 5504 5502
5559 5559 5559 5558 5557 5556 5556 5555 5555 5555 5555 5555 5554 5554 5553 5552 5550 5549 5547 5546 5545 5544 5543 5542 5541 5540 5538 5536 5535 5534 5532 5530 5527 5524 5520 5517 5514 5511 5508 5504 5501 5498 5495